THOR ALTAIR DEB, 2177

Orbit data source: Space-Track

THOR ALTAIR DEB, 2177 is space debris in SSO originally from a launch on Thu, 31 Mar 1966 UTC launched from the Air Force Western Test Range (AFWTR). Debris objects in space refer to the collection of defunct objects orbiting the Earth. Examples of debris include non-operational satellites, rocket bodies, and fragments generated from explosions, collisions, or faulty payload assembly.

Loading next visibility...
Identifier
2177, 1966-026D
Orbit
SSO
Country
Flag of USUS
Related business
Manufacturer
Unknown
Mission
Spacecraft
Bus & Motor
Unknown
Mass
Unknown
Launch date (UTC)
1966-03-31 (59 years ago)
Launch vehicle
Unknown
Launch site
Air Force Western Test Range (AFWTR)
Object type
Payload
Rocket body
Debris
Shape & HBR
Unknown
Radar Cross Section
Small (<0.1 m²)

Expand to show TLE details & history
Last TLE update: 9 hours ago

TLE from 9 hours ago
0 THOR ALTAIR DEB
1 02177U 66026D   25242.81344731  .00004140  00000-0  50709-3 0  9996
2 02177  98.9374 196.4528 0133733 183.8645 176.1542 14.77640774119913
Epoch: 2025-08-30T19:31Z
TLE epoch observation values (Epoch: 2025-08-30T19:31:21.847Z)
Latitude
-0.00004°
Longitude
-75.63058°
Altitude
733.393 km
Speed
7.438 km/s
True Right ascension
13h 05m 48s
True Declination
0° 00' 00"
Sunlit
Object was in daylight at epoch
Visualization orbit readout
Latitude
Unknown
Longitude
Unknown
Altitude
Unknown
Speed
Unknown
Apparent Right ascension
Unknown
Apparent Declination
Unknown
Sunlit
N/A
Visualization observer readout
Local Sidereal Time
19:55:39
Azimuth
Unknown
Elevation
Unknown
Doppler factor
Unknown
Orbital elements
Apogee altitude
727.647 km
Perigee altitude
540.1 km
Semi-major axis
7,012.011 km
Eccentricity
0.01337
Inclination
98.9374°
RAAN
196.4528°
Arg. of periapsis
183.8645°
True anomaly
176.2553°
Mean anomaly
176.1542°
Eccentric anomaly
176.20492°
Mean motion
3.6964 °/min
Orbital period
97.39 mins
BSTAR
0.00050709
Loading maneuver chart data...
Computing Atmospheric mass density...
Loading historical data...
Loading historical data...
Loading historical data...
Loading historical data...
Loading historical data...
Loading historical data...
Loading historical data...

Documentation

Showing up to 5 results
|